Weather History for Lumberton, NC

Change the Weather History Date:

Friday, April 4, 2014

  Actual Average Record
Temperature  
Mean Temperature 72 °F 59 °F  
Max Temperature 83 °F 72 °F 84 °F (1999)
Min Temperature 60 °F 47 °F 37 °F (2004)
Degree Days  
Heating Degree Days 0 7  
Month to date heating degree days 5 29  
Since 1 July heating degree days 2813 2605  
Cooling Degree Days 7 1  
Month to date cooling degree days 13 4  
Year to date cooling degree days 15 17  
Growing Degree Days 22 (Base 50)    
Moisture  
Dew Point 54 °F    
Average Humidity 61    
Maximum Humidity 90    
Minimum Humidity 31    
Precipitation  
Precipitation 0.00 in 0.10 in 1.03 in (2013)
Month to date precipitation 0.00 0.46  
Year to date precipitation 9.49 9.66  
Sea Level Pressure  
Sea Level Pressure 29.88 in    
Wind  
Wind Speed 12 mph (SW)    
Max Wind Speed 25 mph    
Max Gust Speed 34 mph    
Visibility 10 miles    
Events      
T = Trace of Precipitation, MM = Missing Value Source: NWS Daily Summary

Daily Weather History Graph

Daily Weather History Graph

Search for Another Location

Airport:

Trip Planner

Search our weather history database for the weather conditions in past years. The results will help you decide how hot, cold, wet, or windy it might be!

Date:

Astronomy

Apr. 04, 2014 Rise Set
Actual Time 6:59 AM EDT 7:39 PM EDT
Civil Twilight 6:33 AM EDT 8:05 PM EDT
Nautical Twilight 6:03 AM EDT 8:35 PM EDT
Astronomical Twilight 5:33 AM EDT 9:05 PM EDT
Moon 10:23 AM EDT (4/4) No Moon Set
Length of Visible Light 13h 31m
Length of Day
12h 40m
Waxing Crescent, 25% of the Moon is Illuminated
Apr 4
Waxing Crescent
Apr 7
First Quarter
Apr 15
Full
Apr 22
Last Quarter
Apr 29
New

Hourly Weather History & Observations

Time (EDT) Temp. Heat Index Dew Point Humidity Pressure Visibility Wind Dir Wind Speed Gust Speed Precip Events Conditions
12:54 AM 66.9 °F - 51.1 °F 57% 29.94 in 10.0 mi SSW 9.2 mph - N/A   Clear
1:54 AM 64.9 °F - 50.0 °F 58% 29.93 in 10.0 mi SSW 8.1 mph - N/A   Clear
2:54 AM 64.0 °F - 51.1 °F 63% 29.93 in 10.0 mi SSW 8.1 mph - N/A   Clear
3:54 AM 63.0 °F - 53.1 °F 70% 29.92 in 10.0 mi SSW 6.9 mph - N/A   Clear
4:54 AM 61.0 °F - 55.0 °F 81% 29.90 in 10.0 mi SSW 8.1 mph - N/A   Clear
5:54 AM 62.1 °F - 55.9 °F 80% 29.90 in 10.0 mi SSW 8.1 mph - N/A   Clear
6:54 AM 61.0 °F - 57.0 °F 87% 29.90 in 10.0 mi SSW 6.9 mph - N/A   Clear
7:54 AM 63.0 °F - 57.0 °F 81% 29.91 in 10.0 mi SSW 8.1 mph - N/A   Clear
8:54 AM 66.0 °F - 57.0 °F 73% 29.92 in 10.0 mi SW 9.2 mph - N/A   Clear
9:54 AM 71.1 °F - 57.9 °F 63% 29.91 in 10.0 mi SW 11.5 mph - N/A   Clear
10:54 AM 73.0 °F - 57.9 °F 59% 29.92 in 10.0 mi SSW 10.4 mph 17.3 mph N/A   Clear
11:54 AM 73.9 °F - 52.0 °F 46% 29.92 in 10.0 mi WSW 16.1 mph 25.3 mph N/A   Clear
12:54 PM 75.9 °F - 51.1 °F 42% 29.92 in 10.0 mi SW 18.4 mph 26.5 mph N/A   Clear
1:54 PM 79.0 °F - 52.0 °F 39% 29.90 in 10.0 mi SW 19.6 mph 29.9 mph N/A   Clear
2:54 PM 82.0 °F - 52.0 °F 35% 29.87 in 10.0 mi SW 19.6 mph 32.2 mph N/A   Clear
3:54 PM 82.0 °F 81.2 °F 53.1 °F 37% 29.85 in 10.0 mi WSW 18.4 mph 26.5 mph N/A   Clear
4:54 PM 82.9 °F - 48.0 °F 29% 29.82 in 10.0 mi WSW 20.7 mph 27.6 mph N/A   Clear
5:54 PM 81.0 °F - 50.0 °F 34% 29.81 in 10.0 mi SW 18.4 mph - N/A   Clear
6:54 PM 77.0 °F - 54.0 °F 45% 29.81 in 10.0 mi SW 6.9 mph - N/A   Clear
7:54 PM 77.0 °F - 52.0 °F 42% 29.79 in 10.0 mi SSW 9.2 mph - N/A   Clear
8:54 PM 75.9 °F - 54.0 °F 46% 29.78 in 10.0 mi SSW 11.5 mph 20.7 mph N/A   Clear
9:54 PM 75.0 °F - 55.0 °F 50% 29.81 in 10.0 mi SW 11.5 mph - N/A   Clear
10:54 PM 73.9 °F - 55.9 °F 53% 29.83 in 10.0 mi SSW 9.2 mph - N/A   Clear
11:54 PM 73.9 °F - 55.9 °F 53% 29.83 in 10.0 mi SW 11.5 mph - N/A   Clear